Location: Roland
(31.1349°N, 85.4372°W)
Time: 21:22:10
(UTC+00:00)

Tiros 1 - Pass Details

Date: 22 April 2021
Orbit: 630 x 664 km, 48.4° (Epoch: 05 May)

Event Time Altitude Azimuth Distance (km) Brightness Sun altitude
Rises 22:18:58 0° 284° (WNW) 2,911 11.8 23.7°
Reaches altitude 10° 22:23:08 10° 248° (WSW) 2,002 11.1 22.8°
Maximum altitude 22:24:17 11° 233° (SW) 1,947 10.6 22.6°
Drops below altitude 10° 22:25:25 10° 219° (SW) 2,003 10.3 22.3°
Sets 22:29:37 0° 182° (S) 2,913 10.5 21.4°
